Weather History for KDMO - June, 2013

Change the Weather History Date:

Saturday, June 8, 2013

  Actual Average Record
Temperature  
Mean Temperature 67 °F 73 °F  
Max Temperature 80 °F 83 °F 94 °F (1941)
Min Temperature 54 °F 63 °F 50 °F (2003)
Degree Days  
Heating Degree Days 0 0  
Month to date heating degree days 9 4  
Since 1 June heating degree days 9 4  
Since 1 July heating degree days 4745 4569  
Cooling Degree Days 2 8  
Month to date cooling degree days 10 60  
Year to date cooling degree days 158 199  
Since 1 June cooling degree days 10 60  
Growing Degree Days 16 (Base 50)    
Moisture  
Dew Point 55 °F    
Average Humidity 68    
Maximum Humidity 93    
Minimum Humidity 42    
Precipitation  
Precipitation T in 0.20 in 2.23 in (1998)
Month to date precipitation 0.10 1.62  
Year to date precipitation 23.10 16.77  
Sea Level Pressure  
Sea Level Pressure 29.91 in    
Wind  
Wind Speed 8 mph (South)    
Max Wind Speed 18 mph    
Max Gust Speed 21 mph    
Visibility 10 miles    
Events      
T = Trace of Precipitation, MM = Missing Value Source: NWS Daily Summary

Daily Weather History Graph

Daily Weather History Graph

Search for Another Location

Airport or City:

Trip Planner

Search our weather history database for the weather conditions in past years. The results will help you decide how hot, cold, wet, or windy it might be!

Date:

Astronomy

Jun. 08, 2013 Rise Set
Actual Time 5:47 AM CDT 8:36 PM CDT
Civil Twilight 5:16 AM CDT 9:07 PM CDT
Nautical Twilight 4:36 AM CDT 9:47 PM CDT
Astronomical Twilight 3:51 AM CDT 10:33 PM CDT
Moon 5:55 AM CDT (6/8) 8:39 PM CDT (6/8)
Length of Visible Light 15h 51m
Length of Day
14h 48m
New Moon, 0% of the Moon is Illuminated
Jun 8
New Moon
Jun 16
First Quarter
Jun 23
Full
Jun 29
Last Quarter
Jul 8
New

Hourly Weather History & Observations

Time (CDT) Temp. Dew Point Humidity Pressure Visibility Wind Dir Wind Speed Gust Speed Precip Events Conditions
12:53 AM 59.0 °F 53.1 °F 81% 29.95 in 10.0 mi Calm Calm - N/A   Clear
1:53 AM 57.0 °F 53.1 °F 87% 29.94 in 10.0 mi Calm Calm - N/A   Clear
2:53 AM 55.0 °F 52.0 °F 89% 29.93 in 10.0 mi South 5.8 mph - N/A   Partly Cloudy
3:53 AM 54.0 °F 52.0 °F 93% 29.91 in 10.0 mi SSE 3.5 mph - N/A   Clear
4:53 AM 54.0 °F 51.1 °F 90% 29.92 in 10.0 mi SSE 3.5 mph - N/A   Clear
5:53 AM 55.0 °F 51.1 °F 86% 29.94 in 10.0 mi SSW 5.8 mph - N/A   Clear
6:53 AM 57.0 °F 53.1 °F 87% 29.95 in 10.0 mi South 5.8 mph - N/A   Clear
7:53 AM 62.1 °F 55.0 °F 78% 29.95 in 10.0 mi South 6.9 mph - N/A   Clear
8:53 AM 68.0 °F 57.9 °F 70% 29.95 in 10.0 mi South 8.1 mph - N/A   Clear
9:53 AM 72.0 °F 54.0 °F 53% 29.95 in 10.0 mi SSW 9.2 mph - N/A   Clear
10:53 AM 73.9 °F 54.0 °F 50% 29.95 in 10.0 mi SSW 9.2 mph - N/A   Clear
11:53 AM 75.0 °F 54.0 °F 48% 29.94 in 10.0 mi South 10.4 mph - N/A   Clear
12:53 PM 75.9 °F 54.0 °F 46% 29.93 in 9.0 mi SW 8.1 mph - N/A   Clear
1:53 PM 78.1 °F 55.0 °F 45% 29.91 in 10.0 mi South 10.4 mph 18.4 mph N/A   Clear
2:53 PM 79.0 °F 54.0 °F 42% 29.89 in 10.0 mi South 9.2 mph - N/A   Clear
3:53 PM 79.0 °F 55.0 °F 44% 29.88 in 10.0 mi South 9.2 mph - N/A   Clear
4:53 PM 79.0 °F 55.0 °F 44% 29.87 in 10.0 mi SSE 16.1 mph - N/A   Clear
5:53 PM 79.0 °F 55.0 °F 44% 29.86 in 10.0 mi SSE 12.7 mph - N/A   Clear
6:53 PM 77.0 °F 55.9 °F 48% 29.84 in 10.0 mi SSE 12.7 mph 20.7 mph N/A   Clear
7:53 PM 75.0 °F 57.0 °F 53% 29.84 in 10.0 mi SSE 9.2 mph - N/A   Clear
8:53 PM 70.0 °F 59.0 °F 68% 29.86 in 10.0 mi SSE 4.6 mph - N/A   Scattered Clouds
9:53 PM 68.0 °F 57.9 °F 70% 29.87 in 10.0 mi SE 6.9 mph - N/A   Clear
10:53 PM 70.0 °F 59.0 °F 68% 29.87 in 10.0 mi SSE 9.2 mph - N/A   Clear
11:53 PM 70.0 °F 57.9 °F 65% 29.86 in 10.0 mi SSE 10.4 mph - N/A   Partly Cloudy